Terminal Aerodrome Forecast
Issued by NWS Denver/Boulder, CO

Home | Current Version | Previous Version | Text Only | Print | Product List | Glossary On
Versions: 1 2 3 4 5 6 7 8 9 10 11 12 13 14 15 16 17 18 19 20 21 22 23 24 25 26 27 28 29 30 31 32 33 34 35 36 37 38 39 40 41 42 43 44 45 46 47 48 49 50
000
FTUS45 KBOU 021720
TAFDEN
TAF
KDEN 021720Z 0218/0324 29005KT P6SM FEW100 FEW220
     FM022100 02007KT P6SM FEW100 SCT220
     FM030100 34006KT P6SM SCT220
     FM030600 23008KT P6SM FEW080 SCT130
     FM031300 33008KT P6SM SCT070 SCT120
     FM031700 01013KT P6SM FEW120 SCT200
     FM032300 33008KT P6SM FEW200=

USA.gov is the U.S. government's official web portal to all federal, state and local government web resources and services.